Location: Koussan�
(15.2012°N, 12.5548°W)
Time: 11:52:54
(UTC+00:00)

Meteor 2-15 Rocket - Pass Details

Date: 20 October 2020
Orbit: 938 x 957 km, 82.5° (Epoch: 26 November)

Event Time Altitude Azimuth Distance (km) Brightness Sun altitude
Rises 20:04:53 0° 181° (S) 3,617 7.6 -24.3°
Reaches altitude 10° 20:07:22 10° 180° (S) 2,674 6.8 -24.9°
Maximum altitude 20:13:29 81° 94° (E) 970 4.3 -26.4°
Enters shadow 20:17:17 25° 9° (N) 1,831 5.8 -27.3°
